Temp
2 2 1 1 1 1 1 1 0 0 0 -0 -0 -1 -1 -2 -2 -2 -3 -3 -3 -3 -4 -4 -4 -4 -4 -5 -5 -5 -5 -6 -6 -6 -7 -7 -7 -8 -8 -8 -9 -9 -9 -10 -10 -10 -10 -10 -10 -9 -9 -9 -9 -9 -9 -9 -9 -9 -9 -9 -9 -9 -9 -9 -9 -9 -10 -10 -10
2 2 1 1 1 1 1 1 0 0 0 -0 -1 -1 -1 -2 -2 -2 -3 -3 -3 -3 -4 -4 -4 -4 -4 -5 -5 -5 -5 -6 -6 -6 -7 -7 -7 -8 -8 -8 -9 -9 -9 -9 -10 -10 -10 -10 -10 -9 -9 -9 -9 -9 -9 -9 -9 -9 -9 -9 -9 -9 -9 -9 -9 -10 -10 -10 -10
2 2 1 1 1 1 1 1 0 0 0 -0 -1 -1 -1 -2 -2 -2 -3 -3 -3 -3 -4 -4 -4 -4 -4 -5 -5 -5 -5 -6 -6 -6 -7 -7 -7 -8 -8 -8 -8 -9 -9 -9 -10 -10 -10 -10 -10 -10 -9 -9 -9 -9 -9 -9 -9 -9 -9 -9 -9 -9 -9 -9 -9 -10 -10 -10 -10
2 2 1 1 1 1 1 1 0 0 0 -0 -1 -1 -1 -2 -2 -2 -3 -3 -3 -3 -4 -4 -4 -4 -4 -5 -5 -5 -5 -6 -6 -6 -7 -7 -7 -7 -8 -8 -8 -8 -9 -9 -9 -10 -10 -10 -10 -10 -9 -9 -9 -9 -9 -9 -9 -9 -9 -9 -9 -9 -9 -9 -10 -10 -10 -10 -10
2 2 1 1 1 1 1 0 0 0 -0 -0 -1 -1 -1 -2 -2 -2 -3 -3 -3 -3 -4 -4 -4 -4 -4 -5 -5 -5 -5 -6 -6 -6 -6 -7 -7 -7 -8 -8 -8 -8 -9 -9 -9 -9 -10 -10 -10 -10 -9 -9 -9 -9 -9 -9 -9 -9 -9 -9 -9 -9 -10 -10 -10 -10 -10 -10 -10
2 2 1 1 1 1 1 0 0 0 -0 -0 -1 -1 -1 -2 -2 -2 -3 -3 -3 -3 -4 -4 -4 -4 -5 -5 -5 -5 -5 -6 -6 -6 -7 -7 -7 -7 -8 -8 -8 -8 -8 -9 -9 -9 -10 -10 -10 -10 -10 -9 -9 -9 -9 -9 -9 -10 -10 -10 -10 -10 -10 -10 -10 -10 -10 -10 -10
2 2 1 1 1 1 1 0 0 0 -0 -0 -1 -1 -1 -2 -2 -2 -3 -3 -3 -3 -4 -4 -4 -4 -5 -5 -5 -5 -5 -6 -6 -6 -7 -7 -7 -7 -7 -8 -8 -8 -8 -9 -9 -9 -9 -10 -10 -10 -10 -10 -9 -9 -9 -9 -10 -10 -10 -10 -10 -10 -10 -10 -10 -10 -10 -10 -10
2 1 1 1 1 1 0 0 0 0 0 -0 -1 -1 -1 -2 -2 -2 -3 -3 -3 -4 -4 -4 -4 -4 -5 -5 -5 -5 -5 -6 -6 -6 -7 -7 -7 -7 -7 -8 -8 -8 -8 -8 -9 -9 -9 -10 -10 -10 -10 -10 -10 -10 -10 -10 -10 -10 -10 -10 -10 -10 -10 -10 -10 -10 -10 -10 -10
2 2 1 1 1 1 0 0 0 0 -0 -0 -1 -1 -2 -2 -2 -3 -3 -3 -3 -4 -4 -4 -4 -4 -5 -5 -5 -5 -5 -6 -6 -6 -6 -7 -7 -7 -7 -7 -8 -8 -8 -8 -9 -9 -9 -9 -10 -10 -10 -10 -10 -10 -10 -10 -10 -10 -10 -10 -10 -10 -10 -10 -10 -10 -10 -10 -10
2 1 1 1 1 0 0 0 0 0 -0 -0 -1 -1 -2 -2 -2 -3 -3 -3 -4 -4 -4 -4 -4 -5 -5 -5 -5 -5 -5 -6 -6 -6 -6 -7 -7 -7 -7 -7 -8 -8 -8 -8 -8 -9 -9 -9 -9 -10 -10 -10 -10 -10 -10 -10 -10 -10 -10 -10 -10 -10 -10 -10 -10 -10 -10 -10 -10
2 1 1 1 1 0 0 0 0 0 -0 -0 -1 -1 -2 -2 -2 -3 -3 -3 -3 -4 -4 -4 -4 -4 -5 -5 -5 -5 -5 -6 -6 -6 -6 -6 -7 -7 -7 -7 -8 -8 -8 -8 -8 -9 -9 -9 -9 -10 -10 -10 -10 -10 -10 -10 -10 -10 -10 -10 -10 -10 -10 -10 -10 -10 -10 -10 -10
2 1 1 1 0 0 0 0 0 0 -0 -0 -1 -1 -2 -2 -3 -3 -3 -3 -3 -4 -4 -4 -4 -4 -5 -5 -5 -5 -5 -6 -6 -6 -6 -6 -7 -7 -7 -7 -7 -8 -8 -8 -8 -9 -9 -9 -9 -10 -10 -10 -10 -10 -10 -10 -10 -10 -10 -10 -10 -10 -10 -10 -10 -10 -10 -10 -10
1 1 1 1 0 0 0 0 0 0 -0 -0 -1 -1 -2 -2 -3 -3 -3 -3 -3 -4 -4 -4 -4 -4 -5 -5 -5 -5 -5 -6 -6 -6 -6 -6 -7 -7 -7 -7 -7 -8 -8 -8 -8 -9 -9 -9 -9 -10 -10 -10 -10 -10 -10 -10 -10 -10 -10 -10 -10 -10 -10 -10 -10 -10 -10 -10 -10
1 1 1 1 0 0 0 0 0 0 -0 -0 -1 -1 -2 -2 -3 -3 -3 -3 -4 -4 -4 -4 -4 -4 -5 -5 -5 -5 -5 -6 -6 -6 -6 -6 -6 -7 -7 -7 -7 -8 -8 -8 -8 -9 -9 -9 -9 -10 -10 -10 -10 -10 -10 -10 -10 -10 -10 -10 -10 -10 -10 -10 -10 -10 -10 -10 -10
1 1 1 0 0 0 0 0 0 0 -0 -1 -1 -2 -2 -2 -3 -3 -3 -3 -4 -4 -4 -4 -4 -5 -5 -5 -5 -5 -5 -6 -6 -6 -6 -6 -6 -7 -7 -7 -7 -7 -8 -8 -8 -8 -9 -9 -9 -10 -10 -10 -10 -10 -10 -10 -10 -10 -10 -10 -10 -10 -10 -10 -10 -10 -10 -10 -10
1 1 1 0 0 0 0 0 0 -0 -0 -1 -1 -2 -2 -2 -3 -3 -3 -3 -4 -4 -4 -4 -4 -5 -5 -5 -5 -5 -5 -6 -6 -6 -6 -6 -6 -7 -7 -7 -7 -7 -8 -8 -8 -8 -9 -9 -9 -9 -10 -10 -10 -10 -10 -9 -9 -10 -10 -10 -10 -10 -10 -10 -10 -10 -10 -10 -10
1 1 1 0 0 0 0 0 0 -0 -0 -1 -1 -2 -2 -2 -3 -3 -3 -3 -4 -4 -4 -4 -4 -5 -5 -5 -5 -5 -5 -6 -6 -6 -6 -6 -6 -7 -7 -7 -7 -7 -8 -8 -8 -8 -8 -9 -9 -9 -9 -10 -10 -9 -9 -9 -9 -9 -10 -10 -10 -10 -10 -10 -10 -10 -10 -10 -10
1 1 1 1 0 0 0 0 0 -0 -0 -1 -1 -2 -2 -2 -3 -3 -3 -3 -4 -4 -4 -4 -4 -5 -5 -5 -5 -5 -5 -6 -6 -6 -6 -6 -6 -7 -7 -7 -7 -7 -8 -8 -8 -8 -8 -8 -9 -9 -9 -9 -9 -9 -9 -9 -9 -9 -9 -9 -9 -9 -9 -10 -10 -10 -10 -10 -10
1 1 1 1 0 0 0 0 -0 -0 -0 -1 -1 -2 -2 -2 -3 -3 -3 -3 -4 -4 -4 -4 -4 -5 -5 -5 -5 -5 -5 -6 -6 -6 -6 -6 -6 -7 -7 -7 -7 -7 -7 -8 -8 -8 -8 -8 -8 -9 -9 -9 -9 -9 -9 -9 -9 -9 -9 -9 -9 -9 -9 -9 -9 -9 -9 -10 -10
1 1 1 1 0 0 0 -0 -0 -0 -0 -1 -1 -2 -2 -2 -3 -3 -3 -3 -4 -4 -4 -4 -4 -5 -5 -5 -5 -5 -5 -6 -6 -6 -6 -6 -6 -6 -7 -7 -7 -7 -7 -7 -8 -8 -8 -8 -8 -8 -9 -9 -9 -9 -9 -9 -9 -9 -9 -9 -9 -9 -9 -9 -9 -9 -9 -9 -9
1 1 1 1 0 0 -0 -0 -0 -0 -0 -1 -1 -2 -2 -2 -3 -3 -3 -3 -4 -4 -4 -4 -4 -4 -5 -5 -5 -5 -5 -6 -6 -6 -6 -6 -6 -6 -7 -7 -7 -7 -7 -7 -7 -8 -8 -8 -8 -8 -8 -9 -9 -9 -9 -9 -9 -9 -9 -9 -9 -9 -9 -9 -9 -9 -9 -9 -9
1 1 1 0 0 -0 -0 -0 -0 -0 -0 -1 -1 -1 -2 -2 -3 -3 -3 -3 -4 -4 -4 -4 -4 -5 -5 -5 -5 -5 -5 -6 -6 -6 -6 -6 -6 -6 -7 -7 -7 -7 -7 -7 -7 -7 -8 -8 -8 -8 -8 -8 -8 -9 -9 -9 -9 -9 -9 -9 -9 -9 -9 -9 -9 -9 -9 -9 -9
1 1 1 0 -0 -0 -0 -0 -0 -0 -0 -1 -1 -1 -2 -2 -3 -3 -3 -3 -4 -4 -4 -4 -4 -5 -5 -5 -5 -5 -5 -6 -6 -6 -6 -6 -6 -6 -7 -7 -7 -7 -7 -7 -7 -7 -7 -7 -7 -7 -8 -8 -8 -8 -9 -9 -9 -9 -9 -9 -9 -9 -9 -9 -9 -9 -9 -9 -9
1 1 0 0 -0 -0 -0 -0 -0 -0 -0 -1 -1 -1 -2 -2 -3 -3 -3 -3 -4 -4 -4 -4 -4 -5 -5 -5 -5 -5 -5 -5 -6 -6 -6 -6 -6 -6 -6 -7 -7 -7 -7 -7 -7 -7 -7 -7 -7 -7 -8 -9 -9 -9 -9 -9 -9 -9 -9 -9 -9 -9 -9 -9 -9 -9 -9 -9 -9
1 1 0 0 -0 -0 -0 -0 0 0 -0 -1 -1 -2 -2 -2 -3 -3 -3 -3 -3 -4 -4 -4 -4 -5 -5 -5 -5 -5 -5 -5 -6 -6 -6 -6 -6 -6 -6 -7 -7 -7 -7 -7 -7 -7 -7 -7 -8 -8 -9 -10 -10 -10 -9 -9 -9 -9 -9 -9 -9 -9 -9 -9 -9 -9 -9 -9 -9
1 0 0 -0 -0 -0 -0 0 0 0 -0 -1 -1 -2 -2 -2 -3 -3 -3 -3 -3 -4 -4 -4 -4 -5 -5 -5 -5 -5 -5 -5 -6 -6 -6 -6 -6 -6 -6 -6 -7 -7 -7 -7 -7 -7 -7 -7 -8 -9 -10 -10 -10 -9 -9 -9 -9 -9 -9 -9 -9 -9 -9 -9 -9 -9 -9 -8 -8
1 0 0 -0 -0 -0 -0 0 0 -0 -0 -1 -1 -2 -2 -2 -3 -3 -3 -3 -3 -4 -4 -4 -4 -5 -5 -5 -5 -5 -5 -5 -6 -6 -6 -6 -6 -6 -6 -6 -6 -7 -7 -7 -7 -7 -7 -7 -8 -9 -10 -9 -9 -9 -9 -9 -8 -9 -9 -9 -9 -9 -8 -8 -9 -8 -8 -8 -8
1 0 0 -0 -0 -0 0 0 0 -0 -0 -1 -1 -1 -2 -2 -3 -3 -3 -3 -3 -4 -4 -4 -4 -5 -5 -5 -5 -5 -5 -5 -6 -6 -6 -6 -6 -6 -6 -6 -6 -7 -7 -7 -7 -7 -7 -7 -7 -8 -9 -9 -9 -9 -8 -8 -8 -8 -8 -8 -8 -8 -8 -8 -8 -8 -8 -8 -8
0 0 0 -0 -0 -0 0 0 0 0 -0 -1 -1 -2 -2 -2 -2 -3 -3 -3 -3 -4 -4 -4 -4 -5 -5 -5 -5 -5 -5 -5 -6 -6 -6 -6 -6 -6 -6 -6 -6 -7 -7 -7 -7 -7 -7 -7 -7 -8 -9 -9 -9 -8 -8 -8 -8 -8 -8 -8 -8 -8 -8 -8 -8 -8 -8 -8 -8
0 0 0 -0 -0 0 0 0 0 -0 -0 -1 -1 -1 -2 -2 -2 -2 -3 -3 -3 -4 -4 -4 -4 -4 -4 -5 -5 -5 -5 -5 -5 -6 -6 -6 -6 -6 -6 -6 -6 -7 -7 -7 -7 -7 -7 -7 -7 -8 -9 -9 -8 -8 -8 -8 -8 -8 -8 -8 -8 -8 -8 -8 -8 -8 -8 -8 -9
0 0 0 -0 -0 0 0 0 -0 -0 -1 -1 -1 -1 -2 -2 -2 -2 -3 -3 -3 -4 -4 -4 -4 -4 -4 -5 -5 -5 -5 -5 -5 -6 -6 -6 -6 -6 -6 -6 -6 -7 -7 -7 -7 -7 -7 -7 -7 -8 -9 -8 -8 -8 -8 -8 -8 -8 -8 -8 -8 -8 -8 -8 -8 -8 -8 -9 -9
0 0 0 0 0 0 0 -0 -0 -0 -1 -1 -1 -1 -1 -2 -2 -2 -3 -3 -3 -4 -4 -4 -4 -4 -4 -5 -5 -5 -5 -5 -5 -6 -6 -6 -6 -6 -6 -6 -6 -6 -7 -7 -7 -7 -7 -7 -7 -8 -8 -8 -8 -8 -8 -8 -8 -8 -8 -8 -8 -8 -8 -8 -8 -8 -8 -8 -8
0 0 -0 -0 0 0 -0 -0 -0 -1 -1 -1 -1 -1 -1 -1 -2 -2 -3 -3 -3 -4 -4 -4 -4 -4 -4 -5 -5 -5 -5 -5 -5 -6 -6 -6 -6 -6 -6 -6 -6 -6 -6 -7 -7 -7 -7 -7 -7 -8 -8 -8 -8 -8 -8 -8 -8 -8 -8 -8 -7 -8 -8 -8 -8 -8 -8 -8 -8
0 -0 -0 -0 -0 -0 -0 -0 -1 -1 -1 -1 -1 -1 -1 -1 -2 -2 -3 -3 -3 -3 -4 -4 -4 -4 -4 -4 -5 -5 -5 -5 -5 -5 -6 -6 -6 -6 -6 -6 -6 -6 -6 -6 -6 -7 -7 -7 -7 -8 -8 -8 -8 -8 -8 -8 -7 -8 -8 -7 -8 -8 -8 -8 -8 -8 -8 -8 -8
-0 -0 -0 -0 -0 -0 -0 -0 -1 -1 -1 -1 -1 -1 -1 -1 -2 -2 -3 -3 -3 -3 -4 -4 -4 -4 -4 -4 -5 -5 -5 -5 -5 -5 -6 -6 -6 -6 -6 -6 -6 -6 -6 -6 -6 -6 -6 -7 -7 -7 -8 -8 -8 -8 -7 -7 -8 -8 -8 -7 -8 -8 -8 -8 -8 -8 -8 -8 -8
-0 -1 -1 -0 -0 -0 -0 -1 -1 -1 -1 -1 -1 -1 -1 -1 -2 -2 -3 -3 -3 -3 -3 -4 -4 -4 -4 -4 -5 -5 -5 -5 -5 -5 -6 -6 -6 -6 -6 -6 -6 -6 -6 -6 -6 -6 -6 -6 -7 -7 -8 -8 -8 -7 -7 -7 -8 -8 -7 -7 -8 -8 -8 -8 -8 -8 -8 -8 -8
-1 -1 -1 -1 -0 -0 -1 -1 -1 -1 -1 -1 -1 -1 -1 -1 -2 -2 -3 -3 -3 -3 -3 -3 -4 -4 -4 -4 -4 -5 -5 -5 -5 -5 -5 -6 -6 -6 -6 -5 -5 -6 -6 -6 -6 -6 -6 -6 -7 -7 -8 -8 -8 -8 -7 -8 -8 -7 -7 -7 -8 -8 -8 -8 -8 -8 -8 -8 -8
-1 -1 -1 -1 -1 -1 -1 -1 -1 -1 -1 -1 -1 -1 -1 -2 -2 -2 -3 -3 -3 -3 -3 -3 -4 -4 -4 -4 -4 -4 -5 -5 -5 -5 -5 -6 -6 -6 -6 -5 -5 -5 -6 -6 -6 -6 -6 -6 -6 -7 -8 -8 -8 -8 -8 -8 -8 -7 -7 -7 -8 -8 -8 -8 -8 -8 -8 -8 -8
-1 -1 -1 -1 -1 -1 -1 -1 -1 -1 -1 -1 -1 -1 -1 -2 -2 -2 -3 -3 -3 -3 -3 -3 -4 -4 -4 -4 -4 -4 -4 -5 -5 -5 -5 -5 -6 -6 -6 -5 -5 -5 -5 -5 -5 -5 -6 -6 -6 -7 -8 -8 -8 -8 -8 -8 -8 -7 -7 -7 -8 -8 -8 -8 -8 -8 -8 -8 -8
-1 -2 -2 -1 -1 -1 -1 -1 -1 -1 -1 -1 -1 -1 -1 -2 -2 -3 -3 -3 -3 -3 -3 -3 -4 -4 -4 -4 -4 -4 -4 -5 -5 -5 -5 -5 -5 -5 -5 -5 -5 -5 -5 -5 -5 -5 -5 -6 -6 -7 -8 -9 -8 -8 -8 -8 -7 -7 -7 -7 -8 -8 -7 -8 -8 -8 -8 -8 -8
-1 -2 -2 -1 -1 -1 -1 -1 -2 -2 -1 -1 -1 -1 -2 -2 -2 -3 -3 -3 -3 -3 -3 -3 -4 -4 -4 -4 -4 -4 -4 -4 -5 -5 -5 -5 -5 -5 -5 -5 -5 -5 -5 -5 -5 -5 -5 -6 -6 -7 -8 -9 -8 -8 -8 -8 -7 -7 -7 -7 -8 -7 -7 -8 -8 -8 -8 -8 -8
Height
1517 1517 1517 1517 1516 1516 1516 1515 1515 1515 1514 1514 1514 1513 1513 1513 1512 1512 1511 1510 1510 1509 1509 1508 1507 1507 1506 1505 1504 1503 1502 1501 1500 1499 1498 1497 1496 1496 1495 1494 1493 1492 1492 1491 1490 1489 1489 1488 1487 1487 1486 1485 1484 1484 1483 1482 1481 1480 1479 1478 1476 1475 1474 1473 1471 1470 1469 1467 1466
1515 1515 1515 1514 1514 1514 1514 1514 1513 1513 1513 1512 1512 1512 1511 1511 1510 1510 1509 1509 1508 1508 1507 1506 1506 1505 1504 1504 1503 1502 1501 1500 1499 1498 1497 1496 1495 1494 1494 1493 1492 1491 1490 1489 1489 1488 1487 1487 1486 1485 1484 1484 1483 1482 1481 1480 1479 1478 1477 1476 1475 1474 1473 1471 1470 1469 1467 1466 1464
1513 1513 1513 1512 1512 1512 1512 1512 1511 1511 1511 1510 1510 1510 1509 1509 1509 1508 1508 1507 1506 1506 1505 1504 1504 1503 1503 1502 1501 1500 1499 1498 1497 1496 1495 1494 1494 1493 1492 1491 1490 1489 1489 1488 1487 1486 1486 1485 1484 1483 1482 1482 1481 1480 1479 1479 1478 1477 1475 1474 1473 1472 1471 1470 1469 1467 1466 1464 1463
1511 1511 1510 1510 1510 1510 1510 1510 1509 1509 1509 1509 1508 1508 1508 1507 1507 1506 1506 1505 1504 1504 1504 1503 1502 1502 1501 1500 1499 1499 1498 1497 1496 1495 1494 1493 1492 1491 1491 1490 1489 1488 1487 1486 1485 1485 1484 1483 1482 1482 1481 1480 1479 1479 1478 1477 1476 1475 1474 1473 1472 1471 1469 1468 1467 1466 1464 1463 1462
1509 1509 1508 1508 1508 1508 1508 1508 1508 1507 1507 1507 1506 1506 1506 1505 1505 1504 1504 1504 1503 1502 1502 1501 1500 1500 1499 1499 1498 1497 1496 1495 1494 1494 1493 1492 1491 1490 1489 1488 1487 1486 1486 1485 1484 1483 1482 1482 1481 1480 1479 1479 1478 1477 1476 1475 1474 1473 1472 1471 1470 1469 1468 1467 1466 1464 1463 1462 1460
1506 1506 1506 1506 1506 1506 1506 1506 1506 1505 1505 1504 1504 1504 1504 1504 1503 1503 1502 1502 1501 1500 1500 1499 1499 1498 1498 1497 1496 1495 1495 1494 1493 1492 1491 1490 1489 1489 1488 1487 1486 1485 1484 1483 1483 1482 1481 1480 1479 1478 1478 1477 1476 1475 1475 1474 1473 1471 1470 1469 1469 1468 1467 1465 1464 1463 1462 1460 1459
1504 1504 1504 1504 1504 1504 1504 1504 1504 1503 1503 1503 1502 1502 1502 1502 1501 1501 1500 1500 1499 1499 1498 1498 1497 1496 1496 1495 1495 1494 1493 1493 1492 1491 1490 1489 1488 1487 1486 1485 1484 1484 1483 1482 1481 1480 1479 1479 1477 1477 1476 1475 1474 1474 1473 1472 1471 1470 1469 1468 1467 1466 1465 1464 1463 1462 1460 1459 1457
1502 1502 1502 1502 1502 1502 1502 1502 1502 1501 1501 1501 1500 1500 1500 1500 1499 1499 1499 1498 1498 1497 1496 1496 1495 1495 1494 1494 1493 1493 1492 1491 1490 1489 1488 1487 1486 1486 1485 1484 1483 1482 1481 1480 1479 1479 1478 1477 1476 1475 1474 1474 1473 1472 1471 1471 1469 1468 1467 1466 1465 1464 1464 1463 1461 1460 1459 1457 1455
1500 1500 1500 1500 1500 1500 1500 1500 1499 1499 1499 1499 1499 1499 1498 1498 1498 1497 1497 1496 1496 1495 1495 1494 1494 1493 1493 1492 1492 1491 1490 1489 1489 1488 1487 1486 1485 1484 1483 1483 1482 1481 1480 1479 1478 1477 1476 1475 1474 1474 1473 1472 1471 1470 1469 1469 1468 1467 1465 1464 1463 1462 1462 1461 1460 1459 1457 1455 1454
1497 1498 1498 1498 1498 1498 1498 1498 1497 1497 1497 1497 1497 1497 1496 1496 1496 1495 1495 1494 1494 1494 1493 1493 1492 1492 1491 1491 1490 1489 1489 1488 1487 1486 1485 1484 1484 1483 1482 1481 1480 1479 1478 1477 1477 1475 1474 1474 1473 1472 1471 1470 1469 1469 1468 1467 1466 1465 1464 1462 1461 1460 1459 1459 1458 1457 1455 1454 1452
1495 1495 1495 1495 1496 1496 1496 1495 1495 1495 1495 1495 1495 1495 1494 1494 1494 1494 1493 1493 1492 1492 1491 1491 1490 1490 1489 1489 1489 1488 1487 1486 1485 1485 1484 1483 1482 1481 1480 1479 1479 1478 1477 1476 1475 1474 1473 1472 1471 1470 1469 1469 1468 1467 1466 1465 1464 1463 1462 1461 1460 1459 1458 1457 1456 1455 1454 1452 1450
1493 1493 1493 1494 1494 1494 1494 1493 1493 1493 1493 1493 1493 1493 1493 1492 1492 1492 1491 1491 1490 1490 1490 1489 1489 1488 1488 1487 1487 1486 1485 1485 1484 1483 1482 1482 1481 1480 1479 1478 1477 1476 1475 1474 1473 1472 1471 1470 1469 1469 1468 1467 1466 1465 1464 1464 1462 1461 1460 1459 1458 1457 1456 1454 1454 1453 1452 1450 1448
1491 1491 1491 1491 1491 1491 1491 1491 1491 1491 1491 1491 1491 1491 1491 1490 1490 1490 1489 1489 1489 1489 1488 1488 1487 1487 1486 1486 1485 1484 1484 1483 1483 1482 1481 1480 1479 1479 1478 1477 1476 1475 1474 1473 1472 1471 1470 1469 1468 1467 1466 1465 1464 1464 1463 1462 1461 1459 1458 1457 1456 1455 1454 1453 1452 1451 1449 1448 1446
1489 1489 1489 1489 1489 1489 1489 1489 1489 1489 1489 1489 1489 1489 1489 1489 1489 1488 1488 1487 1487 1487 1486 1486 1485 1485 1484 1484 1484 1483 1482 1482 1481 1480 1479 1479 1478 1477 1476 1475 1474 1473 1472 1471 1470 1469 1468 1467 1466 1465 1464 1464 1463 1462 1461 1460 1459 1458 1456 1455 1454 1453 1452 1451 1450 1449 1448 1446 1444
1486 1486 1487 1487 1487 1487 1487 1487 1487 1487 1487 1487 1487 1487 1487 1487 1487 1486 1486 1485 1485 1485 1485 1484 1484 1483 1483 1482 1482 1481 1481 1480 1479 1479 1478 1477 1476 1475 1474 1474 1473 1472 1471 1470 1469 1468 1467 1466 1465 1464 1463 1462 1461 1460 1459 1458 1457 1456 1455 1454 1452 1451 1450 1449 1448 1447 1446 1444 1443
1484 1484 1484 1485 1485 1485 1485 1485 1485 1485 1485 1485 1485 1485 1485 1485 1485 1484 1484 1484 1484 1484 1483 1483 1482 1482 1481 1481 1480 1480 1479 1479 1478 1477 1476 1476 1475 1474 1473 1472 1471 1470 1469 1468 1467 1466 1465 1464 1464 1462 1461 1460 1459 1458 1457 1456 1455 1454 1453 1452 1451 1449 1448 1447 1446 1445 1444 1443 1441
1482 1482 1482 1483 1483 1483 1484 1484 1484 1484 1484 1484 1484 1484 1484 1483 1483 1483 1483 1482 1482 1482 1481 1481 1480 1480 1479 1479 1479 1478 1478 1477 1476 1476 1475 1474 1473 1473 1472 1471 1470 1469 1468 1466 1465 1464 1464 1463 1462 1461 1460 1459 1457 1456 1455 1454 1454 1452 1451 1450 1449 1448 1447 1446 1444 1444 1442 1441 1439
1479 1480 1480 1480 1481 1481 1482 1482 1482 1482 1482 1482 1482 1482 1482 1482 1481 1481 1481 1481 1480 1480 1480 1479 1479 1479 1478 1478 1477 1477 1476 1475 1475 1474 1474 1473 1472 1471 1470 1469 1468 1467 1466 1465 1464 1463 1462 1461 1460 1459 1458 1457 1456 1455 1454 1453 1452 1450 1449 1448 1447 1446 1445 1444 1443 1442 1441 1439 1438
1477 1478 1478 1479 1479 1479 1480 1480 1480 1480 1480 1480 1480 1480 1480 1480 1480 1479 1479 1479 1479 1478 1478 1478 1477 1477 1476 1476 1476 1475 1475 1474 1474 1473 1472 1471 1470 1469 1469 1468 1467 1465 1464 1464 1462 1461 1460 1460 1459 1458 1457 1455 1454 1453 1452 1451 1450 1449 1448 1447 1445 1444 1443 1442 1441 1440 1439 1437 1436
1475 1475 1476 1476 1477 1478 1478 1478 1478 1478 1478 1478 1478 1478 1478 1478 1478 1478 1478 1477 1477 1477 1476 1476 1476 1475 1475 1474 1474 1474 1473 1473 1472 1471 1471 1470 1469 1468 1467 1466 1465 1464 1463 1462 1461 1460 1459 1458 1457 1456 1455 1454 1453 1452 1451 1450 1449 1447 1446 1445 1444 1443 1441 1440 1439 1438 1436 1435 1434
1473 1473 1474 1474 1475 1476 1476 1476 1476 1476 1476 1476 1476 1476 1476 1476 1476 1476 1476 1476 1475 1475 1474 1474 1474 1474 1473 1473 1473 1472 1472 1471 1470 1470 1469 1469 1468 1467 1465 1464 1463 1462 1461 1460 1459 1459 1458 1457 1456 1454 1454 1452 1451 1450 1449 1448 1447 1445 1444 1443 1442 1440 1439 1438 1437 1435 1434 1433 1431
1470 1471 1472 1473 1473 1474 1474 1474 1474 1474 1474 1474 1474 1475 1475 1475 1474 1474 1474 1474 1474 1473 1473 1473 1472 1472 1472 1471 1471 1470 1470 1469 1469 1468 1468 1467 1466 1465 1464 1463 1462 1461 1460 1459 1458 1457 1456 1455 1454 1453 1452 1451 1450 1449 1448 1446 1445 1444 1442 1441 1440 1439 1437 1436 1435 1433 1432 1431 1429
1469 1469 1470 1471 1471 1472 1472 1473 1473 1473 1473 1473 1473 1473 1473 1473 1473 1473 1473 1472 1472 1472 1471 1471 1471 1470 1470 1469 1469 1469 1469 1468 1468 1467 1466 1465 1464 1464 1463 1462 1460 1459 1458 1457 1456 1455 1454 1453 1452 1451 1450 1449 1448 1447 1445 1444 1443 1442 1440 1439 1438 1436 1435 1434 1433 1431 1430 1429 1428
1467 1468 1468 1469 1469 1470 1470 1470 1471 1471 1471 1471 1471 1471 1471 1471 1471 1471 1471 1470 1470 1470 1470 1469 1469 1469 1468 1468 1468 1467 1467 1466 1466 1465 1465 1464 1463 1462 1461 1460 1459 1458 1457 1456 1455 1454 1453 1452 1450 1449 1448 1447 1446 1444 1444 1443 1441 1440 1439 1438 1436 1434 1433 1432 1430 1429 1428 1426 1425
1465 1465 1466 1467 1467 1468 1468 1468 1469 1469 1469 1469 1470 1470 1470 1470 1469 1469 1469 1469 1469 1468 1468 1468 1467 1467 1467 1466 1466 1466 1465 1465 1464 1464 1463 1463 1462 1461 1460 1459 1458 1457 1456 1454 1454 1453 1452 1450 1449 1448 1447 1446 1445 1444 1443 1442 1441 1439 1438 1437 1435 1433 1431 1430 1429 1427 1426 1424 1423
1463 1463 1464 1464 1465 1466 1466 1466 1467 1467 1468 1468 1468 1468 1468 1468 1468 1468 1467 1467 1467 1467 1466 1466 1466 1465 1465 1465 1464 1464 1464 1463 1463 1462 1462 1461 1460 1459 1459 1458 1456 1455 1454 1453 1452 1451 1451 1449 1449 1448 1447 1446 1445 1444 1443 1441 1440 1439 1437 1435 1434 1432 1430 1428 1426 1425 1424 1422 1420
1460 1461 1462 1463 1463 1464 1464 1464 1465 1465 1465 1466 1466 1466 1466 1466 1466 1466 1465 1465 1465 1465 1465 1464 1464 1464 1464 1463 1463 1463 1462 1462 1461 1461 1460 1459 1459 1458 1457 1456 1455 1454 1453 1452 1451 1450 1449 1448 1448 1447 1447 1446 1444 1443 1442 1440 1439 1437 1436 1434 1432 1431 1429 1428 1425 1423 1421 1420 1418
1458 1459 1460 1460 1461 1461 1462 1463 1463 1463 1464 1464 1464 1464 1464 1464 1464 1464 1464 1464 1464 1464 1463 1463 1463 1462 1462 1461 1461 1461 1461 1460 1460 1459 1459 1458 1457 1456 1455 1454 1454 1453 1452 1451 1449 1449 1448 1447 1446 1446 1445 1445 1444 1443 1441 1439 1438 1436 1434 1433 1431 1430 1428 1426 1424 1422 1420 1418 1416
1456 1457 1458 1458 1459 1459 1460 1460 1461 1461 1462 1462 1462 1462 1462 1462 1462 1462 1462 1462 1462 1462 1462 1461 1461 1460 1460 1460 1460 1459 1459 1459 1459 1458 1457 1456 1456 1455 1454 1453 1452 1451 1450 1449 1448 1447 1446 1446 1445 1444 1444 1444 1443 1442 1440 1439 1437 1435 1434 1432 1430 1429 1427 1425 1423 1421 1419 1417 1415
1454 1455 1456 1456 1457 1457 1458 1459 1459 1460 1460 1460 1460 1460 1460 1460 1460 1460 1460 1460 1460 1460 1460 1460 1459 1459 1459 1459 1458 1458 1458 1458 1457 1456 1456 1455 1454 1453 1453 1452 1451 1450 1449 1448 1447 1446 1445 1444 1444 1443 1443 1443 1442 1441 1439 1438 1436 1434 1432 1430 1429 1427 1425 1424 1422 1420 1419 1417 1414
1452 1453 1453 1454 1455 1455 1456 1457 1457 1458 1458 1458 1458 1458 1458 1458 1458 1458 1458 1459 1459 1459 1458 1458 1458 1457 1457 1457 1457 1457 1456 1456 1455 1455 1454 1453 1453 1452 1451 1450 1449 1448 1447 1446 1445 1444 1444 1443 1442 1442 1441 1441 1441 1439 1438 1436 1435 1433 1431 1429 1427 1426 1424 1423 1421 1419 1417 1415 1413
1449 1450 1451 1452 1453 1453 1454 1455 1455 1456 1456 1456 1456 1456 1456 1456 1456 1457 1457 1457 1457 1457 1456 1456 1456 1456 1456 1455 1455 1455 1455 1454 1454 1454 1453 1452 1451 1450 1449 1449 1448 1447 1446 1445 1444 1443 1442 1442 1441 1440 1440 1440 1439 1438 1436 1435 1433 1431 1429 1428 1426 1425 1423 1422 1420 1418 1416 1414 1412
1447 1448 1449 1449 1450 1451 1452 1453 1454 1454 1454 1454 1454 1454 1454 1454 1455 1455 1455 1455 1455 1455 1455 1454 1454 1454 1454 1454 1454 1454 1453 1453 1453 1452 1451 1450 1450 1449 1448 1447 1446 1445 1444 1444 1443 1442 1441 1440 1439 1439 1439 1438 1438 1436 1434 1433 1432 1430 1428 1426 1425 1424 1422 1420 1419 1417 1415 1413 1411
1444 1445 1447 1448 1449 1449 1450 1451 1452 1452 1452 1452 1452 1452 1453 1453 1453 1453 1453 1453 1453 1453 1453 1453 1453 1453 1452 1452 1452 1452 1452 1451 1451 1450 1450 1449 1448 1447 1446 1446 1445 1444 1443 1442 1441 1440 1439 1439 1438 1438 1437 1437 1435 1434 1433 1431 1430 1428 1426 1425 1424 1423 1421 1419 1418 1416 1414 1412 1410
1442 1443 1444 1446 1447 1448 1449 1449 1450 1450 1450 1450 1450 1450 1451 1451 1451 1451 1452 1452 1452 1451 1451 1451 1451 1451 1451 1451 1451 1450 1450 1450 1449 1449 1448 1448 1447 1446 1445 1444 1444 1443 1442 1441 1440 1439 1438 1437 1437 1436 1436 1435 1434 1432 1431 1430 1428 1426 1425 1424 1423 1421 1419 1418 1416 1415 1413 1411 1409
1440 1441 1442 1444 1445 1446 1447 1447 1448 1449 1449 1449 1449 1449 1449 1449 1450 1450 1450 1450 1450 1450 1449 1450 1449 1449 1449 1449 1449 1449 1449 1448 1448 1447 1447 1446 1445 1444 1444 1443 1442 1442 1441 1439 1439 1438 1437 1436 1435 1434 1434 1433 1432 1431 1430 1429 1427 1425 1424 1423 1422 1420 1418 1417 1415 1414 1412 1410 1408
1438 1439 1441 1442 1443 1444 1445 1446 1446 1447 1447 1447 1447 1447 1448 1448 1449 1449 1449 1449 1448 1448 1448 1448 1448 1448 1448 1448 1448 1447 1447 1447 1446 1446 1445 1444 1444 1443 1442 1441 1441 1440 1439 1438 1437 1436 1435 1434 1434 1433 1433 1432 1431 1430 1429 1427 1425 1424 1423 1422 1420 1419 1417 1416 1414 1413 1411 1409 1407
1435 1437 1439 1440 1441 1442 1443 1444 1444 1445 1445 1445 1446 1446 1446 1447 1447 1447 1447 1447 1447 1446 1446 1446 1446 1446 1446 1446 1446 1446 1445 1445 1444 1444 1444 1443 1442 1441 1440 1440 1439 1438 1438 1437 1436 1435 1434 1433 1433 1432 1431 1430 1430 1429 1427 1426 1424 1423 1422 1421 1419 1417 1416 1415 1413 1412 1410 1409 1407
1433 1435 1437 1439 1440 1441 1441 1442 1443 1443 1444 1444 1444 1445 1445 1445 1445 1445 1445 1445 1445 1445 1445 1445 1445 1445 1445 1444 1444 1444 1444 1444 1443 1443 1442 1441 1441 1440 1439 1438 1437 1437 1436 1435 1434 1433 1433 1432 1431 1431 1430 1429 1429 1428 1426 1425 1423 1422 1421 1420 1418 1416 1415 1414 1412 1411 1409 1408 1406
1431 1433 1435 1437 1438 1439 1439 1440 1441 1442 1442 1443 1443 1443 1444 1444 1444 1444 1444 1444 1444 1443 1443 1443 1444 1444 1443 1443 1443 1443 1442 1442 1442 1441 1440 1440 1439 1439 1438 1437 1436 1435 1434 1434 1433 1432 1431 1430 1430 1429 1429 1428 1428 1427 1425 1424 1422 1421 1420 1419 1417 1415 1414 1413 1411 1410 1408 1407 1405
1429 1431 1433 1434 1436 1437 1438 1438 1439 1440 1440 1441 1441 1442 1442 1442 1442 1442 1442 1442 1442 1442 1442 1442 1442 1442 1442 1441 1441 1441 1441 1441 1440 1440 1439 1439 1438 1437 1436 1435 1434 1434 1433 1432 1431 1430 1430 1429 1429 1428 1428 1427 1427 1426 1424 1423 1422 1421 1419 1417 1415 1414 1413 1412 1410 1409 1407 1406 1404
Wind_Speed
22 21 21 20 19 19 18 17 17 16 16 16 16 16 17 17 17 17 17 17 16 16 16 16 17 17 17 17 17 17 17 17 17 17 17 17 17 17 17 17 17 17 17 17 17 17 17 17 17 17 17 16 16 15 15 15 16 17 17 17 18 18 19 20 20 21 22 22 24
22 21 21 20 20 19 18 18 17 17 16 16 16 16 17 17 17 17 17 16 16 16 16 17 17 17 17 17 17 17 17 17 17 17 17 17 17 17 18 18 18 18 17 17 17 17 18 18 18 18 17 17 16 16 15 15 16 17 18 18 18 19 20 20 21 21 22 22 23
22 22 21 21 20 19 19 18 17 17 16 16 16 16 17 17 17 17 17 16 16 16 16 17 17 17 17 17 17 17 17 17 17 17 17 17 17 18 18 18 18 18 18 18 18 18 18 19 19 19 19 18 17 16 16 16 17 18 19 19 19 20 20 21 21 22 22 23 23
23 22 22 21 20 19 19 18 17 17 16 16 17 17 17 17 17 17 17 16 16 16 16 17 17 17 17 17 17 17 17 18 18 18 18 18 18 18 18 18 19 18 18 18 18 18 18 19 20 20 20 19 18 17 17 17 17 18 19 20 20 21 21 21 22 22 23 23 24
23 22 22 21 20 20 19 18 18 17 17 17 17 17 17 17 17 17 17 16 16 16 16 17 17 17 17 17 17 18 18 18 18 18 18 18 18 18 18 18 19 19 18 18 18 18 19 19 20 21 21 20 20 19 18 18 19 20 20 21 21 21 22 22 22 23 24 24 25
23 22 22 21 20 20 20 19 18 17 17 17 17 17 17 17 17 17 17 16 16 16 16 17 17 17 17 17 18 18 18 18 18 18 18 18 18 18 18 18 19 19 18 18 18 18 19 19 20 21 21 21 21 20 20 19 20 21 22 22 22 22 22 23 23 24 24 25 26
24 23 22 21 21 20 20 19 18 18 17 17 17 17 17 17 17 17 17 16 16 16 16 17 17 17 17 18 18 18 18 18 18 18 18 18 18 18 18 18 19 19 18 18 18 18 19 19 20 21 22 22 22 21 21 21 21 22 23 23 23 23 23 23 24 25 25 26 27
24 23 22 22 21 21 20 19 18 18 18 17 17 17 17 17 17 17 17 16 16 16 16 17 17 17 17 18 18 18 18 18 18 18 18 18 18 18 18 18 19 19 18 18 18 18 18 19 20 21 21 22 22 22 22 22 22 23 24 24 24 24 24 24 24 25 25 27 28
24 23 23 22 22 21 20 19 19 18 18 17 17 17 17 17 17 17 17 16 16 16 16 17 17 17 17 18 18 18 18 18 18 18 18 18 19 19 19 19 19 19 19 18 18 18 19 19 20 20 21 21 22 22 23 23 23 24 24 25 25 25 25 24 24 24 25 26 27
25 24 23 22 22 21 21 20 19 18 18 17 17 17 17 17 17 17 16 16 16 16 16 16 17 17 17 18 18 18 18 18 18 18 18 18 19 19 19 19 19 19 19 19 18 18 19 19 20 20 20 21 21 22 23 23 23 24 25 25 25 25 25 24 24 24 24 25 26
25 24 23 23 22 22 21 20 19 18 18 17 17 17 17 17 17 17 16 16 17 16 16 16 17 17 17 17 17 17 18 18 18 18 19 19 19 19 19 19 19 19 19 19 19 19 19 20 20 20 20 21 21 22 23 23 23 24 25 25 25 25 25 25 24 24 24 25 26
25 24 24 23 23 22 21 20 19 18 18 17 17 17 17 17 17 17 17 17 17 16 16 16 17 17 17 17 17 17 17 18 18 18 19 19 19 19 19 19 19 19 19 19 19 19 19 20 20 21 21 21 22 22 23 23 24 24 25 25 25 25 25 25 25 24 25 26 27
25 25 24 24 23 23 22 20 19 18 18 17 17 17 17 17 17 17 17 17 16 16 16 16 16 17 17 17 17 17 17 18 18 19 19 19 19 19 19 19 19 19 19 19 19 19 20 20 20 21 22 22 22 23 23 24 24 24 25 24 24 24 24 25 25 25 25 27 28
26 25 25 24 24 23 22 21 19 18 18 17 17 17 17 17 17 17 17 17 16 16 16 16 16 16 16 16 17 17 17 18 18 18 19 19 19 19 19 19 19 19 20 19 20 20 20 20 21 21 22 23 23 23 24 24 24 24 24 23 23 23 23 24 24 25 26 27 29
27 26 25 25 24 23 22 21 19 18 18 17 17 17 17 17 17 17 17 17 16 16 16 16 16 16 16 16 17 17 17 18 18 18 19 19 19 19 19 20 20 20 20 20 20 20 20 21 21 21 22 23 24 24 24 23 23 22 22 22 22 22 23 23 24 25 26 28 30
27 27 26 25 25 24 22 21 19 18 18 17 17 17 17 17 17 17 17 17 16 16 16 16 16 15 16 16 16 17 17 18 18 18 19 19 19 19 19 20 20 20 20 20 20 20 20 20 21 21 22 23 24 24 24 23 22 21 20 20 20 21 22 23 24 25 26 28 30
28 27 26 26 25 24 22 21 19 18 18 17 17 17 17 17 17 17 17 16 16 16 16 16 15 15 15 16 16 17 17 18 18 18 18 19 19 19 19 20 20 20 20 20 20 21 21 21 21 21 22 23 23 24 23 22 21 21 20 20 21 21 22 23 24 25 27 28 30
28 27 27 26 25 24 22 21 19 18 18 17 17 17 17 17 17 17 17 16 16 16 16 16 15 15 15 16 16 16 17 17 18 18 18 18 18 19 19 19 20 20 20 20 21 21 21 21 21 22 22 23 23 23 22 22 21 21 21 21 22 23 23 24 25 26 28 29 31
29 28 27 26 25 23 22 21 19 18 18 17 17 17 17 17 17 17 16 16 16 16 16 16 15 15 15 15 16 16 17 17 17 18 18 18 18 19 19 19 19 20 20 20 20 21 21 21 21 22 22 22 22 22 21 21 21 21 22 23 23 24 25 26 26 28 29 30 32
29 28 27 26 25 23 22 21 19 18 18 17 18 18 18 17 17 17 16 16 16 16 16 16 15 15 15 15 16 16 16 17 17 17 18 18 18 18 19 19 19 20 20 20 20 20 21 21 21 22 22 22 22 21 20 20 21 21 22 23 24 25 26 27 28 29 30 32 33
29 28 27 26 25 23 22 21 19 19 18 18 18 18 18 18 17 17 16 16 16 16 16 16 15 15 15 15 16 16 16 16 17 17 17 18 18 18 19 19 19 19 19 19 19 20 20 21 21 21 21 21 21 20 20 20 21 22 23 24 25 26 28 29 30 31 32 34 35
29 28 27 26 25 24 22 21 20 19 19 18 18 18 18 18 17 17 16 16 16 16 16 15 15 15 15 15 15 16 16 16 17 17 17 18 18 18 18 19 19 19 19 19 19 19 20 20 20 21 20 20 20 20 20 21 22 23 24 26 27 28 29 30 31 33 34 35 36
29 28 27 26 25 24 23 21 20 19 19 19 18 18 18 18 17 17 17 17 16 16 16 15 15 15 15 15 15 16 16 16 16 17 17 17 18 18 18 18 19 19 19 19 19 19 20 20 20 20 20 20 21 21 22 23 24 25 26 28 29 30 31 32 33 34 35 37 38
29 28 27 26 25 24 23 22 20 20 19 19 18 18 18 18 18 18 17 17 16 16 16 15 15 15 15 15 15 16 16 16 16 16 16 17 17 17 18 18 18 18 19 19 19 19 20 20 21 21 21 22 22 23 24 25 26 27 28 29 30 32 33 33 34 36 37 38 40
29 28 27 27 26 25 23 22 21 20 19 18 18 18 18 18 18 18 17 17 16 16 16 15 15 15 15 15 15 16 16 17 17 17 16 16 16 17 17 18 18 18 18 18 19 19 19 20 20 20 21 22 23 24 25 26 26 27 29 30 32 33 34 36 37 38 39 40 41
30 29 28 27 26 25 24 22 20 19 19 19 19 19 19 19 19 18 18 17 16 16 16 16 15 15 15 15 15 16 16 17 17 17 17 16 16 16 17 17 17 18 18 18 18 19 19 19 18 19 20 21 22 23 24 25 26 28 29 31 32 34 36 38 39 40 41 41 42
30 29 28 28 27 26 24 22 20 19 19 19 19 19 19 19 19 19 18 17 16 16 16 16 16 15 15 15 15 15 16 17 17 17 17 17 16 16 16 17 17 17 18 18 18 19 19 18 18 18 18 19 20 22 24 25 27 28 30 32 33 35 37 38 40 41 42 41 40
31 30 29 28 27 26 24 22 20 20 19 19 19 19 19 19 20 19 18 17 16 16 16 16 16 16 16 15 15 15 16 16 17 17 17 17 17 17 17 17 17 17 18 18 18 19 19 19 18 18 18 19 20 22 24 26 27 29 31 32 34 35 37 38 40 40 40 38 36
31 30 29 29 27 26 24 22 21 20 19 19 19 19 20 20 20 19 18 17 16 16 16 16 16 16 16 15 15 15 16 17 17 17 17 17 17 17 17 17 17 17 18 18 18 19 19 19 18 18 18 18 20 21 23 25 27 29 31 32 34 35 36 37 36 36 34 32 30
31 30 30 29 28 26 24 22 20 20 19 19 19 20 21 21 20 19 18 17 16 16 16 16 16 16 15 15 15 16 16 16 17 17 17 17 17 17 17 17 18 18 18 18 18 19 19 19 18 18 18 19 20 21 23 25 27 29 30 32 33 34 34 32 30 28 26 25 26
32 31 30 29 28 26 24 22 20 20 20 20 20 21 21 21 20 19 18 17 16 16 17 17 17 16 15 15 15 16 16 16 17 17 17 17 17 18 18 18 18 18 18 18 18 18 19 18 18 18 18 19 20 21 23 25 26 28 29 31 32 31 29 26 23 21 21 24 28
32 31 31 30 28 26 24 22 21 20 20 21 21 21 21 21 19 18 17 17 17 17 17 17 17 16 15 15 15 16 16 17 17 17 17 17 18 18 18 18 18 18 18 18 18 18 18 18 18 18 18 19 20 21 23 24 25 26 28 30 29 27 24 22 20 20 23 27 31
33 32 31 30 29 27 24 22 21 21 21 22 22 22 21 20 19 18 18 17 17 17 17 17 17 16 15 15 15 16 16 17 17 17 17 17 17 18 19 19 19 18 18 18 18 18 18 18 18 18 18 19 20 22 23 23 24 25 27 28 26 23 21 21 21 23 26 30 33
33 32 31 30 29 27 24 23 21 21 22 22 22 22 21 20 19 18 18 17 17 17 17 17 17 16 15 15 15 16 16 16 17 16 16 17 17 18 19 19 18 18 18 18 18 18 18 18 18 18 18 19 20 21 22 22 23 25 27 26 23 21 21 22 23 25 28 31 33
33 32 32 30 29 27 25 23 22 22 23 23 23 22 21 20 19 18 17 17 18 18 18 17 17 16 15 15 15 16 16 16 16 16 16 16 17 18 18 19 18 18 17 17 17 17 18 18 17 17 17 18 20 20 20 21 23 25 26 24 21 20 22 23 24 26 28 31 33
33 33 32 30 29 27 25 23 22 23 23 23 23 22 20 19 18 17 17 17 18 19 18 17 16 16 15 15 15 16 16 16 16 16 16 16 17 17 18 18 18 17 17 17 17 17 17 17 17 17 17 18 18 19 19 20 23 25 24 21 20 21 23 24 25 26 28 31 33
33 32 31 30 29 27 25 23 23 23 24 24 23 21 20 18 18 17 18 18 19 19 18 17 16 16 15 15 15 16 16 16 16 16 15 16 16 17 18 18 17 17 16 16 16 16 17 17 16 16 16 16 17 17 18 20 22 24 23 20 20 22 23 24 25 26 28 30 32
33 32 31 30 29 27 25 24 24 24 24 24 22 21 19 18 18 18 18 19 19 19 18 17 16 16 15 15 15 16 16 15 15 15 15 16 16 17 18 18 17 16 16 16 16 16 16 16 15 15 14 15 16 16 18 20 22 23 21 19 21 23 24 24 24 25 27 30 32
33 32 31 30 29 27 25 24 24 24 24 23 22 20 19 18 18 18 19 19 20 19 18 17 16 15 15 15 16 16 15 15 15 15 15 16 16 17 17 17 17 16 15 16 16 16 16 16 15 14 13 14 14 15 17 19 22 22 20 20 22 24 24 24 24 25 27 29 31
32 31 30 30 29 28 26 25 25 24 24 23 22 20 19 18 18 18 19 20 20 19 18 17 16 15 15 16 16 15 15 14 14 14 15 15 16 16 17 17 16 16 15 15 16 16 16 15 14 13 13 13 13 14 16 19 21 21 20 20 23 24 25 24 24 25 27 29 31
32 30 30 29 29 28 27 26 25 24 24 23 22 20 19 18 18 19 20 20 20 19 18 17 16 16 16 16 16 15 14 14 13 13 14 15 15 15 16 16 16 15 15 15 16 16 16 15 14 13 12 12 13 13 15 18 20 20 20 21 24 25 24 23 23 24 26 29 30
Wind_Direction
257 257 258 259 261 263 267 270 274 277 280 283 285 286 288 289 290 291 292 292 293 294 294 294 294 294 295 296 297 299 300 302 303 305 305 305 306 305 305 304 302 300 298 294 291 287 284 282 282 283 285 287 289 291 296 302 306 309 311 313 317 320 322 324 326 329 330 331 332
257 257 258 258 260 263 266 269 273 276 279 282 284 285 286 287 289 290 291 291 292 293 293 293 294 294 295 296 297 298 300 302 303 304 304 304 305 305 305 304 303 301 299 295 291 288 284 282 281 281 282 283 285 287 290 295 299 302 305 308 311 314 317 320 323 325 327 328 330
256 257 257 258 260 262 265 268 272 275 278 281 282 283 284 286 287 289 290 291 291 292 293 293 293 294 295 296 297 298 299 300 302 303 303 304 305 305 305 305 304 303 300 297 293 288 285 282 280 280 281 282 283 284 286 289 293 296 299 302 306 309 313 316 319 321 323 325 327
256 256 256 258 259 262 265 268 271 275 277 280 281 282 283 285 286 287 289 290 291 292 292 293 293 294 295 295 296 297 298 299 301 302 303 304 305 306 306 306 306 305 302 299 294 289 285 282 280 280 280 281 282 283 285 287 290 292 294 298 301 305 308 312 315 318 320 321 323
255 256 256 258 259 261 264 267 270 273 276 278 280 282 283 284 285 287 288 290 291 291 291 292 292 293 294 295 296 296 298 298 300 301 303 304 305 306 307 307 307 306 304 301 296 291 287 283 280 279 279 280 281 282 284 286 287 289 291 293 296 300 304 308 311 314 316 318 320
255 255 256 257 258 260 262 266 269 272 275 278 279 281 283 284 285 287 288 290 290 290 290 291 291 292 293 293 294 296 297 298 299 300 302 304 305 306 307 307 307 306 305 303 299 294 289 285 282 281 280 280 281 281 283 284 286 287 288 290 292 296 300 304 307 310 313 315 317
254 254 254 255 256 259 261 265 268 271 274 277 279 281 283 284 285 286 288 289 290 290 290 289 290 291 291 292 293 294 296 297 298 300 302 303 305 306 306 306 307 306 305 304 300 296 292 288 285 284 283 283 282 282 283 284 285 286 287 288 290 293 297 301 305 308 311 313 314
253 253 253 254 255 258 260 264 267 270 273 276 279 280 282 282 284 285 287 288 288 288 288 288 289 289 290 291 292 293 295 296 298 300 301 303 304 305 306 306 306 306 305 304 301 298 294 290 288 287 286 286 286 286 286 286 286 286 286 287 289 291 294 298 303 307 310 312 314
251 252 252 253 254 257 259 262 266 269 272 275 277 279 280 281 282 284 286 286 287 286 286 287 287 288 289 290 291 293 294 296 298 299 301 302 303 305 306 306 305 305 305 304 301 299 295 292 290 289 289 289 289 289 290 289 289 288 287 287 289 290 293 296 301 306 310 313 314
250 251 251 252 253 255 258 261 265 268 272 274 276 277 278 279 281 283 284 285 285 284 285 285 286 286 287 289 290 292 294 296 298 299 301 302 303 304 305 305 305 305 304 304 302 300 297 294 292 292 292 292 292 292 292 292 292 290 290 289 289 290 292 295 300 305 311 314 315
250 250 250 251 252 254 257 260 263 267 270 273 275 276 277 279 280 282 282 283 283 283 284 284 284 285 286 288 290 292 294 295 298 299 300 302 303 304 305 305 305 305 305 304 302 300 298 296 294 294 293 293 293 294 294 294 294 293 292 292 291 291 292 294 298 304 309 312 312
249 249 249 250 251 253 256 259 263 266 269 272 273 275 276 278 279 280 280 280 281 282 283 282 283 284 286 288 290 292 293 295 297 298 300 301 302 303 304 305 305 305 304 304 303 301 299 297 296 295 295 295 295 295 295 296 296 296 296 295 294 293 293 295 299 303 307 309 309
247 247 247 248 250 252 255 259 262 265 269 271 272 274 275 276 277 278 279 280 281 281 281 281 282 284 286 287 289 291 293 294 296 298 299 301 302 303 304 304 304 304 304 304 303 301 299 298 297 296 295 295 295 295 296 297 298 299 298 298 296 295 295 297 300 304 306 308 308
246 246 246 247 249 251 255 258 261 265 267 270 271 273 274 274 275 276 278 279 280 280 280 280 281 283 285 287 289 290 292 294 295 297 299 301 302 303 304 304 305 305 305 304 303 302 300 299 297 296 295 295 295 296 297 298 300 300 300 300 298 297 297 299 302 305 306 307 307
244 245 245 247 249 251 254 257 261 264 267 269 270 272 272 273 274 275 276 278 278 279 279 279 281 283 285 287 289 290 292 293 295 297 298 300 302 303 303 304 304 304 304 304 303 302 300 299 298 296 295 294 295 296 297 299 300 301 301 300 299 298 298 300 302 304 306 306 307
243 244 245 246 248 250 254 257 260 263 266 268 269 270 271 272 273 274 275 276 277 277 278 279 280 282 284 286 288 290 291 293 295 296 298 300 301 302 303 303 304 304 303 303 302 302 301 299 297 296 295 294 295 296 297 299 301 301 301 300 299 298 298 299 301 303 305 306 306
243 244 244 246 248 250 253 256 259 262 265 267 268 269 270 271 272 273 274 275 275 276 277 278 280 281 283 285 287 288 290 292 294 296 298 299 301 302 302 303 303 303 303 302 302 302 301 299 297 296 295 294 295 296 298 299 300 300 300 299 298 297 298 299 301 302 304 305 305
243 244 244 245 247 250 252 256 258 261 264 266 267 268 269 270 271 271 272 273 274 275 276 277 279 281 282 284 285 287 289 291 293 295 297 298 300 301 302 302 303 303 302 302 302 302 301 300 298 296 295 295 296 297 298 299 299 299 299 299 298 299 300 301 302 303 304 304 305
243 244 244 245 247 249 252 254 257 260 263 265 266 267 268 269 270 270 271 272 273 274 275 276 278 280 282 284 285 286 288 290 292 294 296 297 298 300 301 302 302 302 302 302 302 302 301 300 298 297 297 297 297 298 299 299 298 299 299 300 301 303 304 305 306 306 306 306 306
243 244 244 245 246 249 251 254 257 259 262 264 265 266 267 269 269 270 270 270 271 272 274 275 277 279 281 283 285 286 288 290 292 293 295 296 298 299 300 301 301 301 302 302 302 302 301 300 299 299 298 299 300 300 300 300 300 301 302 304 306 308 310 310 311 310 310 309 309
243 244 244 245 246 247 249 252 255 258 260 262 264 265 267 268 268 269 269 269 269 270 272 275 277 279 280 282 284 286 288 289 291 293 294 296 297 299 300 300 301 301 302 302 302 302 301 300 300 300 300 301 302 303 303 304 305 306 308 310 312 313 313 313 313 312 312 312 311
243 243 244 244 244 246 248 251 254 257 259 261 263 265 266 267 267 267 268 267 268 269 272 274 276 278 280 282 284 286 287 289 290 292 294 295 297 298 299 300 301 301 302 302 302 302 301 300 300 300 301 303 306 308 310 311 312 313 315 315 315 315 314 313 313 312 312 312 312
242 243 242 242 243 244 246 249 252 256 259 261 263 264 265 266 266 266 266 266 267 269 271 273 275 277 279 281 284 285 287 288 289 291 293 295 297 298 299 300 300 301 302 302 302 302 301 301 301 303 305 309 313 316 317 318 318 317 317 317 316 315 313 313 312 312 312 311 310
242 241 241 241 241 243 245 248 252 255 258 261 262 263 264 265 265 265 265 266 267 269 270 272 274 275 278 280 283 285 287 288 289 290 291 293 295 297 299 300 300 301 302 302 302 302 302 303 305 308 312 316 319 320 320 319 318 317 316 315 314 313 313 312 312 312 311 310 309
240 240 239 239 240 242 244 248 252 255 258 260 262 263 263 263 264 264 264 265 266 268 269 271 273 275 277 280 282 285 287 288 289 290 291 292 294 296 298 299 301 301 302 302 301 301 301 303 306 311 314 315 314 314 314 314 314 314 313 313 312 312 312 313 312 312 310 309 309
239 238 238 238 239 241 244 247 251 255 257 259 260 261 262 263 263 263 264 265 266 267 268 270 272 274 276 279 282 284 286 287 289 290 291 292 294 295 297 299 301 302 303 302 301 300 301 302 305 307 308 307 307 308 309 311 312 312 312 312 312 312 312 312 311 310 310 310 312
237 237 237 237 238 240 243 246 250 253 255 257 258 260 261 262 262 263 263 264 265 266 267 269 271 274 276 278 281 283 285 286 287 288 290 292 294 296 298 300 302 304 304 303 302 301 300 301 302 303 303 304 306 308 309 310 311 311 311 311 311 311 311 310 310 310 311 314 318
236 236 236 237 238 240 242 245 248 251 254 256 258 259 261 261 261 262 262 263 264 265 266 268 271 273 275 278 280 282 283 284 285 286 288 290 293 296 299 302 304 305 305 304 302 301 300 300 300 301 303 305 307 308 309 309 309 310 310 309 309 308 308 309 310 312 316 320 325
236 236 236 236 237 239 241 244 247 250 253 255 257 258 259 259 260 261 261 262 262 264 265 267 269 271 274 277 280 281 282 282 283 285 286 289 292 295 298 302 304 306 306 305 303 300 299 297 298 300 304 306 307 307 307 307 307 307 306 306 306 307 309 312 315 319 323 327 332
234 235 235 236 237 238 240 243 246 249 252 254 255 256 257 258 259 260 260 261 262 263 265 266 267 269 272 276 277 278 279 280 282 283 285 288 291 294 297 301 304 306 306 305 303 300 297 296 297 300 304 306 306 306 305 305 304 304 304 305 307 311 316 320 324 327 330 334 337
233 234 234 235 236 238 239 242 245 248 250 252 253 255 256 257 258 259 260 260 261 262 263 264 266 268 271 274 275 277 278 279 280 282 284 287 290 293 296 299 302 305 306 305 303 300 297 296 297 299 302 305 306 306 304 303 302 303 306 310 315 320 325 329 331 332 334 338 341
232 233 234 235 236 237 238 240 243 246 249 251 252 254 255 257 258 258 258 259 259 260 261 263 265 267 270 272 274 275 277 278 279 281 283 286 289 292 296 299 302 304 306 306 304 301 298 295 295 298 301 304 305 304 303 302 304 309 315 320 325 329 333 335 333 333 337 342 344
231 232 233 234 235 236 237 239 242 245 248 250 252 253 255 256 257 256 256 257 257 258 260 262 264 266 268 270 272 274 275 277 278 279 281 284 288 291 294 298 301 304 306 306 304 302 298 296 295 296 300 303 304 303 302 305 311 319 325 328 330 334 337 338 337 338 341 344 345
230 231 232 233 234 235 235 237 241 244 247 250 251 253 254 255 255 254 255 255 257 258 259 260 262 265 267 269 270 272 273 275 276 278 280 283 286 290 293 296 300 303 305 306 304 302 299 296 295 296 299 301 301 302 305 311 320 327 330 330 333 337 341 342 341 341 343 344 344
229 230 232 233 233 234 234 236 240 244 247 249 251 252 253 254 254 253 254 255 256 257 258 259 261 263 264 267 269 271 272 273 275 277 279 282 285 288 292 294 298 301 304 305 304 301 298 296 294 295 297 299 301 304 310 319 327 331 332 331 334 340 344 344 343 342 343 344 344
228 230 231 233 233 233 234 236 239 243 246 249 250 251 252 253 253 253 253 253 254 255 257 258 259 261 263 265 268 270 272 273 275 277 279 282 284 287 291 293 297 300 303 304 303 301 298 296 295 295 297 299 302 308 315 324 330 332 331 331 335 341 344 344 342 341 342 343 344
227 229 231 232 232 233 234 236 239 243 246 249 250 251 252 252 252 251 251 251 252 254 256 257 259 260 263 265 266 268 270 273 275 277 279 281 284 287 290 293 296 299 302 303 303 302 299 296 296 296 298 302 307 312 319 326 331 332 331 331 335 340 343 342 341 340 341 343 344
227 229 231 232 232 232 233 236 240 243 246 248 250 250 251 251 251 250 250 251 252 254 256 257 258 260 262 263 264 266 268 271 274 277 279 281 284 286 290 293 296 300 302 304 304 303 301 298 296 297 301 307 311 316 321 328 331 332 331 331 334 338 340 340 339 339 341 343 344
225 228 230 231 232 232 233 236 239 243 246 248 249 249 249 249 249 249 250 251 252 254 255 256 257 259 260 261 262 264 266 268 272 275 278 281 284 287 290 294 297 301 303 304 305 305 303 301 298 298 303 309 313 318 323 328 331 331 331 331 334 336 338 338 338 338 340 342 343
224 227 229 231 232 232 233 236 239 243 246 247 248 248 248 249 249 250 250 251 252 253 254 255 256 256 257 259 261 263 265 266 269 272 276 280 284 287 291 294 298 301 303 304 305 305 304 302 299 299 304 310 315 320 324 328 331 332 332 332 333 334 335 335 336 338 340 342 343
223 226 228 230 231 232 233 235 239 242 245 246 247 247 247 248 249 249 249 250 251 252 253 254 254 254 255 257 259 262 264 264 266 270 274 278 283 287 291 295 298 301 302 304 305 305 305 302 299 300 305 312 317 320 324 329 332 334 333 332 330 330 332 334 335 337 340 342 343